• In Uzbekistan
  • List of Countries
  • For 7 days
  • Water Temperature
  • Satellite Maps
  • Weather Map
  • Weather Widgets
  • user-avatar
    Login

    Hourly Weather Korçe

    Today, 21 August, Monday

    Time Temperature Precipitation Wind Pressure Humidity
    00:00 +18°C° 0.1 mm 1 mps 666 mmHg 59%
    01:00 +17°C° 0.1 mm 2 mps 666 mmHg 62%
    02:00 +17°C° 1 mm 2 mps 666 mmHg 67%
    03:00 +16°C° 1 mm 2 mps 666 mmHg 73%
    04:00 +16°C° 1 mm 2 mps 665 mmHg 79%
    05:00 +17°C° 0.4 mm 2 mps 666 mmHg 78%
    06:00 +17°C° 0.4 mm 2 mps 666 mmHg 77%
    07:00 +19°C° 0.4 mm 1 mps 666 mmHg 76%
    08:00 +21°C° 0 mm 1 mps 667 mmHg 65%
    09:00 +23°C° 0 mm 1 mps 667 mmHg 55%
    10:00 +25°C° 0 mm 1 mps 667 mmHg 44%
    11:00 +25°C° 0.2 mm 2 mps 667 mmHg 43%
    12:00 +25°C° 0.2 mm 2 mps 667 mmHg 42%
    13:00 +26°C° 0.2 mm 2 mps 667 mmHg 41%
    14:00 +25°C° 0.1 mm 2 mps 667 mmHg 45%
    15:00 +24°C° 0.1 mm 2 mps 666 mmHg 48%
    16:00 +23°C° 0.1 mm 2 mps 666 mmHg 51%
    17:00 +21°C° 0.1 mm 2 mps 666 mmHg 56%
    18:00 +20°C° 0.1 mm 2 mps 666 mmHg 61%
    19:00 +18°C° 0.1 mm 2 mps 666 mmHg 66%
    20:00 +17°C° 0 mm 2 mps 666 mmHg 70%
    21:00 +17°C° 0 mm 2 mps 666 mmHg 73%
    22:00 +16°C° 0 mm 2 mps 666 mmHg 76%
    23:00 +15°C° 0 mm 2 mps 666 mmHg 77%

    Tomorrow, 22 August, Tuesday

    Time Temperature Precipitation Wind Pressure Humidity
    00:00 +15°C° 0 mm 2 mps 666 mmHg 77%
    01:00 +14°C° 0 mm 2 mps 666 mmHg 78%
    02:00 +14°C° 0 mm 2 mps 666 mmHg 77%
    03:00 +13°C° 0 mm 2 mps 666 mmHg 76%
    04:00 +13°C° 0 mm 2 mps 666 mmHg 75%
    05:00 +14°C° 0 mm 2 mps 666 mmHg 68%
    06:00 +15°C° 0 mm 2 mps 667 mmHg 61%
    07:00 +16°C° 0 mm 2 mps 667 mmHg 54%
    08:00 +18°C° 0 mm 2 mps 668 mmHg 48%
    09:00 +20°C° 0 mm 2 mps 668 mmHg 43%
    10:00 +21°C° 0 mm 2 mps 669 mmHg 37%
    11:00 +23°C° 0 mm 2 mps 669 mmHg 34%
    12:00 +24°C° 0 mm 3 mps 669 mmHg 31%
    13:00 +25°C° 0 mm 3 mps 669 mmHg 28%
    14:00 +25°C° 0 mm 3 mps 668 mmHg 27%
    15:00 +25°C° 0 mm 3 mps 668 mmHg 27%
    16:00 +25°C° 0 mm 3 mps 668 mmHg 26%
    17:00 +22°C° 0 mm 3 mps 668 mmHg 32%
    18:00 +19°C° 0 mm 2 mps 667 mmHg 37%
    19:00 +17°C° 0 mm 2 mps 667 mmHg 42%
    20:00 +16°C° 0 mm 2 mps 667 mmHg 43%
    21:00 +15°C° 0 mm 2 mps 667 mmHg 44%
    22:00 +14°C° 0 mm 2 mps 667 mmHg 46%
    23:00 +14°C° 0 mm 2 mps 667 mmHg 46%

    Day after tomorrow, 23 August, Wednesday

    Time Temperature Precipitation Wind Pressure Humidity
    00:00 +13°C° 0 mm 2 mps 667 mmHg 45%
    01:00 +13°C° 0 mm 2 mps 667 mmHg 45%
    02:00 +13°C° 0 mm 2 mps 667 mmHg 46%
    03:00 +12°C° 0 mm 2 mps 667 mmHg 47%
    04:00 +12°C° 0 mm 2 mps 667 mmHg 49%
    05:00 +14°C° 0 mm 2 mps 667 mmHg 46%
    06:00 +15°C° 0 mm 2 mps 668 mmHg 43%
    07:00 +18°C° 0 mm 1 mps 669 mmHg 40%
    08:00 +20°C° 0 mm 1 mps 669 mmHg 37%
    09:00 +23°C° 0 mm 1 mps 670 mmHg 33%
    10:00 +25°C° 0 mm 1 mps 671 mmHg 30%
    11:00 +26°C° 0 mm 1 mps 671 mmHg 28%
    12:00 +26°C° 0 mm 2 mps 671 mmHg 27%
    13:00 +27°C° 0 mm 2 mps 671 mmHg 25%
    14:00 +27°C° 0 mm 3 mps 670 mmHg 26%
    15:00 +26°C° 0 mm 3 mps 670 mmHg 27%
    16:00 +26°C° 0 mm 3 mps 670 mmHg 28%
    17:00 +22°C° 0 mm 3 mps 670 mmHg 33%
    18:00 +20°C° 0 mm 2 mps 669 mmHg 38%
    19:00 +18°C° 0 mm 1 mps 669 mmHg 44%
    20:00 +18°C° 0 mm 1 mps 669 mmHg 45%
    21:00 +16°C° 0 mm 1 mps 669 mmHg 46%
    22:00 +15°C° 0 mm 1 mps 669 mmHg 47%
    23:00 +15°C° 0 mm 1 mps 669 mmHg 47%

    24 August, Thursday

    Time Temperature Precipitation Wind Pressure Humidity
    00:00 +15°C° 0 mm 1 mps 669 mmHg 47%
    01:00 +14°C° 0 mm 1 mps 669 mmHg 47%
    02:00 +14°C° 0 mm 2 mps 669 mmHg 46%
    03:00 +14°C° 0 mm 2 mps 669 mmHg 46%
    04:00 +13°C° 0 mm 2 mps 668 mmHg 46%
    05:00 +15°C° 0 mm 2 mps 669 mmHg 44%
    06:00 +18°C° 0 mm 1 mps 670 mmHg 41%
    07:00 +19°C° 0 mm 1 mps 670 mmHg 38%
    08:00 +21°C° 0 mm 1 mps 671 mmHg 34%
    09:00 +24°C° 0 mm 1 mps 672 mmHg 30%
    10:00 +26°C° 0 mm 1 mps 672 mmHg 26%
    11:00 +27°C° 0 mm 1 mps 672 mmHg 25%
    12:00 +27°C° 0 mm 2 mps 672 mmHg 24%
    13:00 +28°C° 0 mm 2 mps 672 mmHg 22%
    14:00 +28°C° 0 mm 2 mps 672 mmHg 23%
    15:00 +28°C° 0 mm 3 mps 671 mmHg 24%
    16:00 +27°C° 0 mm 3 mps 671 mmHg 25%
    17:00 +25°C° 0 mm 2 mps 671 mmHg 30%
    18:00 +21°C° 0 mm 2 mps 670 mmHg 35%
    19:00 +20°C° 0 mm 1 mps 670 mmHg 41%
    20:00 +19°C° 0 mm 1 mps 670 mmHg 42%
    21:00 +18°C° 0 mm 1 mps 670 mmHg 42%
    22:00 +18°C° 0 mm 1 mps 670 mmHg 43%
    23:00 +16°C° 0 mm 1 mps 670 mmHg 43%

    25 August, Friday

    Time Temperature Precipitation Wind Pressure Humidity
    00:00 +16°C° 0 mm 1 mps 670 mmHg 43%
    01:00 +16°C° 0 mm 2 mps 670 mmHg 43%
    02:00 +15°C° 0 mm 2 mps 670 mmHg 43%
    03:00 +15°C° 0 mm 2 mps 670 mmHg 43%
    04:00 +15°C° 0 mm 2 mps 669 mmHg 43%
    05:00 +16°C° 0 mm 2 mps 670 mmHg 40%
    06:00 +18°C° 0 mm 2 mps 671 mmHg 37%
    07:00 +20°C° 0 mm 2 mps 671 mmHg 35%
    08:00 +23°C° 0 mm 1 mps 672 mmHg 31%
    09:00 +25°C° 0 mm 1 mps 672 mmHg 26%
    10:00 +27°C° 0 mm 1 mps 673 mmHg 22%
    11:00 +28°C° 0 mm 2 mps 673 mmHg 21%
    12:00 +29°C° 0 mm 2 mps 673 mmHg 21%
    13:00 +30°C° 0 mm 2 mps 673 mmHg 20%
    14:00 +29°C° 0 mm 2 mps 672 mmHg 21%
    15:00 +29°C° 0 mm 2 mps 672 mmHg 22%
    16:00 +29°C° 0 mm 2 mps 672 mmHg 23%
    17:00 +26°C° 0 mm 2 mps 671 mmHg 28%
    18:00 +23°C° 0 mm 2 mps 671 mmHg 33%
    19:00 +20°C° 0 mm 1 mps 670 mmHg 39%
    20:00 +20°C° 0 mm 1 mps 670 mmHg 40%
    21:00 +19°C° 0 mm 1 mps 670 mmHg 41%
    22:00 +18°C° 0 mm 1 mps 670 mmHg 42%
    23:00 +17°C° 0 mm 2 mps 670 mmHg 43%

    26 August, Saturday

    Time Temperature Precipitation Wind Pressure Humidity
    00:00 +16°C° 0 mm 2 mps 670 mmHg 44%
    01:00 +16°C° 0 mm 2 mps 670 mmHg 44%
    02:00 +16°C° 0 mm 2 mps 670 mmHg 46%
    03:00 +15°C° 0 mm 2 mps 670 mmHg 47%
    04:00 +15°C° 0 mm 2 mps 670 mmHg 48%
    05:00 +16°C° 0 mm 2 mps 670 mmHg 45%
    06:00 +18°C° 0 mm 2 mps 671 mmHg 42%
    07:00 +20°C° 0 mm 2 mps 671 mmHg 40%
    08:00 +23°C° 0 mm 2 mps 672 mmHg 34%
    09:00 +25°C° 0 mm 1 mps 672 mmHg 29%
    10:00 +28°C° 0 mm 1 mps 673 mmHg 24%
    11:00 +28°C° 0 mm 2 mps 673 mmHg 22%
    12:00 +29°C° 0 mm 2 mps 672 mmHg 21%
    13:00 +30°C° 0 mm 2 mps 672 mmHg 19%
    14:00 +30°C° 0 mm 2 mps 672 mmHg 20%
    15:00 +29°C° 0 mm 2 mps 672 mmHg 22%
    16:00 +29°C° 0 mm 2 mps 672 mmHg 23%
    17:00 +26°C° 0 mm 2 mps 671 mmHg 29%
    18:00 +23°C° 0 mm 2 mps 670 mmHg 35%
    19:00 +20°C° 0 mm 1 mps 670 mmHg 42%
    20:00 +20°C° 0 mm 1 mps 670 mmHg 43%
    21:00 +19°C° 0 mm 1 mps 670 mmHg 44%
    22:00 +18°C° 0 mm 1 mps 670 mmHg 45%
    23:00 +18°C° 0 mm 1 mps 669 mmHg 46%
    Show more